Home > Weather > Baton Rouge > Past weeks

Flag for USA Past Weather in Baton Rouge, Louisiana, USA — Yesterday and Last 2 Weeks

Now
76 °F

Sunny.


Feels Like: 76 °F
Forecast: 73 / 92 °F
Wind: No wind

Location: Baton Rouge Metropolitan - Ryan Field

Current Time: Jul 29, 2016 at 9:14:07 AM

Latest Report: Jul 29, 2016 at 7:53 AM


Visibility: 10 mi

Pressure: 30.03 "Hg

Humidity: 88%

Dew Point: 72 °F

Location of Baton RougeLocation

Past Weather in Baton Rouge — Graph

°F

Baton Rouge Temperature Yesterday

Maximum temperature yesterday: 90 °F (at 12:53 PM)
Minimum temperature yesterday: 73 °F (at 3:53 AM)
Average temperature yesterday: 79 °F

High & Low Weather Summary for the Past Weeks

 TemperatureHumidityPressure
High95 °F (Jul 18, 2:53 PM)94% (Jul 14, 12:59 PM)30.22 "Hg (Jul 14, 12:59 PM)
Low72 °F (Jul 29, 5:53 AM)46% (Jul 16, 4:53 PM)29.89 "Hg (Jul 26, 4:53 PM)
Average81 °F79%30.04 "Hg
* Reported Jul 14 7:53 AM — Jul 29 7:53 AM, Baton Rouge, Weather by CustomWeather, © 2016

Note: Actual official high and low records may vary slightly from our data, if they occured in-between our weather recording intervals... More about our weather records

Advertising

Baton Rouge Weather History for the Previous 24 Hours

Scroll right to see more
 ConditionsComfort  
Time TempWeatherWind HumidityBarometerVisibility
7:53 AM
Fri, Jul 29
76 °FSunny.No wind88%30.03 "Hg10 mi
6:53 AM73 °FClear.No wind90%30.02 "Hg10 mi
5:53 AM72 °FClear.No wind93%30.01 "Hg10 mi
4:53 AM73 °FClear.No wind90%30.01 "Hg9 mi
3:53 AM73 °FClear.No wind90%30.02 "Hg10 mi
2:53 AM73 °FClear.No wind90%30.02 "Hg10 mi
1:53 AM73 °FClear.No wind94%30.02 "Hg10 mi
12:53 AM74 °FClear.No wind91%30.02 "Hg10 mi
11:53 PM
Thu, Jul 28
74 °FClear.No wind91%30.02 "Hg10 mi
10:53 PM75 °FClear.3 mph88%30.01 "Hg10 mi
9:53 PM75 °FClear.3 mph90%30.00 "Hg10 mi
8:53 PM76 °FSunny.5 mph91%30.00 "Hg10 mi
7:53 PM78 °FPassing clouds.No wind84%30.01 "Hg10 mi
6:53 PM80 °FScattered clouds.3 mph79%30.00 "Hg10 mi
5:53 PM80 °FSunny.7 mph79%30.01 "Hg10 mi
4:53 PM78 °FLight rain. Mostly cloudy.5 mph84%30.00 "Hg10 mi
3:53 PM77 °FLight rain. Partly sunny.5 mph82%30.01 "Hg10 mi
2:58 PM75 °FThunderstorms. Mostly cloudy.3 mph82%30.04 "Hg1 mi
2:53 PM76 °FStrong thunderstorms. Mostly cloudy.3 mph77%30.03 "Hg1 mi
1:53 PM90 °FCloudy.7 mph57%30.01 "Hg10 mi
12:53 PM90 °FPartly sunny.8 mph59%30.02 "Hg10 mi
11:53 AM88 °FSunny.8 mph65%30.03 "Hg10 mi
10:53 AM86 °FPassing clouds.7 mph72%30.04 "Hg10 mi
9:53 AM85 °FScattered clouds.6 mph72%30.04 "Hg10 mi
Weather by CustomWeather, © 2016

See weather overviewHow to use our weather pages